Tracking 35237 objects as of 5-Sep-2026
HD Live streaming from Space Station
objects crossing your sky now

COSMOS 647

Track COSMOS 647 now!
10-day predictions
COSMOS 647 is classified as:


NORAD ID: 7271
Int'l Code: 1974-024G
Launch date: April 23, 1974
Source: Commonwealth of Independent States (former USSR) (CIS)
Launch site: PLESETSK MISSILE AND SPACE COMPLEX (PKMTR)
Your satellite tracking list
Your tracking list is empty




NASA's NSSDC Master Catalog

Two Line Element Set (TLE):
1 07271U 74024G   26247.74201720 -.00000010  00000-0  36102-4 0  9996
2 07271  74.0153  66.8506 0038874  52.2271 320.0467 12.52877440395020
Source of the keplerian elements: AFSPC